TimeEDT,TemperatureF,Dew PointF,Humidity,Sea Level PressureIn,VisibilityMPH,Wind Direction,Wind SpeedMPH,Gust SpeedMPH,PrecipitationIn,Events,Conditions,WindDirDegrees,DateUTC
12:08 AM,57.2,51.8,82,30.10,10.0,NE,11.5,-,N/A,,Overcast,50,2012-10-08 04:08:00
12:53 AM,57.9,52.0,81,30.11,10.0,NE,9.2,-,N/A,,Overcast,40,2012-10-08 04:53:00
1:53 AM,57.9,52.0,81,30.10,10.0,NNE,11.5,-,N/A,,Overcast,20,2012-10-08 05:53:00
2:53 AM,57.9,51.1,78,30.09,10.0,NNE,8.1,-,N/A,,Overcast,20,2012-10-08 06:53:00
3:53 AM,57.9,51.1,78,30.08,10.0,NNE,10.4,17.3,N/A,,Overcast,20,2012-10-08 07:53:00
4:53 AM,57.0,50.0,77,30.09,10.0,NE,11.5,-,N/A,,Overcast,50,2012-10-08 08:53:00
5:40 AM,57.2,48.2,72,30.11,10.0,ENE,10.4,-,N/A,,Overcast,60,2012-10-08 09:40:00
5:53 AM,57.9,48.9,72,30.10,10.0,NE,8.1,-,N/A,,Overcast,40,2012-10-08 09:53:00
6:53 AM,57.9,48.0,70,30.12,10.0,NE,11.5,-,N/A,,Overcast,50,2012-10-08 10:53:00
7:53 AM,57.0,48.9,74,30.15,10.0,NE,9.2,-,N/A,,Overcast,40,2012-10-08 11:53:00
8:53 AM,57.0,48.9,74,30.14,10.0,NE,16.1,21.9,N/A,,Overcast,50,2012-10-08 12:53:00
9:53 AM,57.0,48.9,74,30.15,10.0,ENE,15.0,-,0.00,,Overcast,60,2012-10-08 13:53:00
10:53 AM,57.0,50.0,77,30.14,10.0,ENE,10.4,-,N/A,,Overcast,60,2012-10-08 14:53:00
11:53 AM,57.9,51.1,78,30.14,10.0,NE,10.4,-,0.00,Rain,Light Rain,50,2012-10-08 15:53:00
12:00 PM,57.2,51.8,82,30.14,10.0,NE,9.2,-,0.00,Rain,Light Rain,50,2012-10-08 16:00:00
12:50 PM,55.4,53.6,94,30.13,3.0,NE,6.9,-,0.01,,Overcast,40,2012-10-08 16:50:00
12:53 PM,55.9,53.1,90,30.12,2.5,NE,8.1,-,0.01,,Overcast,40,2012-10-08 16:53:00
1:53 PM,55.0,53.1,93,30.11,2.5,NNE,11.5,-,0.06,Rain,Light Rain,20,2012-10-08 17:53:00
2:01 PM,55.4,53.6,94,30.11,6.0,North,12.7,-,0.00,Rain,Light Rain,10,2012-10-08 18:01:00
2:53 PM,55.0,52.0,89,30.09,10.0,North,15.0,-,0.01,Rain,Light Rain,10,2012-10-08 18:53:00
3:53 PM,55.0,51.1,86,30.09,10.0,NE,11.5,-,0.00,,Overcast,40,2012-10-08 19:53:00
4:53 PM,54.0,51.1,90,30.08,10.0,North,10.4,-,0.00,Rain,Light Rain,10,2012-10-08 20:53:00
5:45 PM,53.6,51.8,94,30.11,2.5,North,8.1,17.3,0.06,Rain,Heavy Rain,10,2012-10-08 21:45:00
5:53 PM,53.1,50.0,89,30.11,1.8,North,11.5,-,0.12,Rain,Heavy Rain,360,2012-10-08 21:53:00
6:01 PM,53.6,50.0,88,30.11,3.0,North,16.1,19.6,0.01,Rain,Light Rain,10,2012-10-08 22:01:00
6:33 PM,53.6,50.0,88,30.11,10.0,NNE,6.9,-,0.02,Rain,Light Rain,20,2012-10-08 22:33:00
6:41 PM,53.6,50.0,88,30.10,10.0,NNE,11.5,-,0.02,Rain,Light Rain,30,2012-10-08 22:41:00
6:53 PM,53.1,50.0,89,30.10,8.0,NNE,6.9,-,0.02,Rain,Light Rain,20,2012-10-08 22:53:00
7:53 PM,52.0,50.0,93,30.11,10.0,North,9.2,-,0.01,,Overcast,10,2012-10-08 23:53:00
8:53 PM,52.0,51.1,97,30.11,8.0,North,10.4,-,0.00,,Overcast,10,2012-10-09 00:53:00
9:53 PM,52.0,50.0,93,30.12,10.0,NNE,5.8,-,N/A,,Overcast,20,2012-10-09 01:53:00
10:53 PM,53.1,50.0,89,30.13,10.0,North,9.2,-,N/A,,Overcast,350,2012-10-09 02:53:00
11:53 PM,53.1,50.0,89,30.12,5.0,North,9.2,-,N/A,,Overcast,350,2012-10-09 03:53:00